"Sample Date","Sample Time","Sample Value","Units","Flow Rate","Sample Interval","Number Channels","Micron Size 0","Counts/Channel 0","Micron Size 1","Counts/Channel 1","Micron Size 2","Counts/Channel 2","Micron Size 3","Counts/Channel 3","Micron Size 4","Counts/Channel 4","Micron Size 5","Counts/Channel 5","Micron Size 6","Counts/Channel 6","Micron Size 7","Counts/Channel 7","Micron Size 8","Counts/Channel 8","Micron Size 9","Counts/Channel 9","Micron Size 10","Counts/Channel 10","Micron Size 11","Counts/Channel 11","Micron Size 12","Counts/Channel 12","Micron Size 13","Counts/Channel 13","Micron Size 14","Counts/Channel 14","Micron Size 15","Counts/Channel 15","Micron Size 16","Counts/Channel 16","Micron Size 17","Counts/Channel 17","Micron Size 18","Counts/Channel 18","Micron Size 19","Counts/Channel 19","Micron Size 20","Counts/Channel 20","Micron Size 21","Counts/Channel 21","Micron Size 22","Counts/Channel 22","Micron Size 23","Counts/Channel 23","Micron Size 24","Counts/Channel 24","Micron Size 25","Counts/Channel 25","Micron Size 26","Counts/Channel 26","Micron Size 27","Counts/Channel 27","Micron Size 28","Counts/Channel 28","Micron Size 29","Counts/Channel 29","Micron Size 30","Counts/Channel 30","Micron Size 31","Counts/Channel 31"
"03/11/08","18:00:00",26609.000,"cc",28310.631,6.00,6,0.100,16776.000,0.200,3837.000,0.300,2249.000,0.500,2687.000,1.000,1060.000,5.000,0
"03/11/08","18:00:06",26429.000,"cc",28271.260,6.00,6,0.100,16766.000,0.200,3857.000,0.300,2255.000,0.500,2558.000,1.000,993.000,5.000,0
"03/11/08","18:00:12",26165.000,"cc",28352.856,6.00,6,0.100,16553.000,0.200,3675.000,0.300,2275.000,0.500,2658.000,1.000,1004.000,5.000,0
"03/11/08","18:00:18",26033.000,"cc",28276.381,6.00,6,0.100,16485.000,0.200,3746.000,0.300,2223.000,0.500,2595.000,1.000,984.000,5.000,0
"03/11/08","18:00:24",26299.000,"cc",28270.816,6.00,6,0.100,16575.000,0.200,3809.000,0.300,2200.000,0.500,2710.000,1.000,1005.000,5.000,0
"03/11/08","18:00:30",26450.000,"cc",28312.875,6.00,6,0.100,16800.000,0.200,3790.000,0.300,2224.000,0.500,2631.000,1.000,1005.000,5.000,0
"03/11/08","18:00:36",26426.000,"cc",28333.777,6.00,6,0.100,16735.000,0.200,3786.000,0.300,2248.000,0.500,2681.000,1.000,976.000,5.000,0
"03/11/08","18:00:42",26527.000,"cc",28331.881,6.00,6,0.100,16766.000,0.200,3805.000,0.300,2310.000,0.500,2634.000,1.000,1012.000,5.000,0
"03/11/08","18:00:48",26193.000,"cc",28261.109,6.00,6,0.100,16694.000,0.200,3625.000,0.300,2242.000,0.500,2599.000,1.000,1033.000,5.000,0
"03/11/08","18:00:54",26347.000,"cc",28328.500,6.00,6,0.100,16625.000,0.200,3783.000,0.300,2280.000,0.500,2662.000,1.000,997.000,5.000,0
"03/11/08","18:01:00",26370.000,"cc",28282.457,6.00,6,0.100,16702.000,0.200,3788.000,0.300,2248.000,0.500,2685.000,1.000,947.000,5.000,0
"03/11/08","18:01:06",26311.000,"cc",28315.023,6.00,6,0.100,16762.000,0.200,3726.000,0.300,2232.000,0.500,2552.000,1.000,1039.000,5.000,0
"03/11/08","18:01:12",26430.000,"cc",28371.061,6.00,6,0.100,16831.000,0.200,3702.000,0.300,2262.000,0.500,2611.000,1.000,1024.000,5.000,0
"03/11/08","18:01:18",26063.000,"cc",28352.488,6.00,6,0.100,16576.000,0.200,3608.000,0.300,2181.000,0.500,2681.000,1.000,1017.000,5.000,0
"03/11/08","18:01:24",25483.000,"cc",28313.873,6.00,6,0.100,16254.000,0.200,3551.000,0.300,2193.000,0.500,2504.000,1.000,981.000,5.000,0
"03/11/08","18:01:30",26156.000,"cc",28322.924,6.00,6,0.100,16452.000,0.200,3723.000,0.300,2275.000,0.500,2634.000,1.000,1072.000,5.000,0
"03/11/08","18:01:36",26681.000,"cc",28270.350,6.00,6,0.100,16866.000,0.200,3787.000,0.300,2286.000,0.500,2700.000,1.000,1042.000,5.000,0
"03/11/08","18:01:42",26195.000,"cc",28311.354,6.00,6,0.100,16593.000,0.200,3757.000,0.300,2157.000,0.500,2654.000,1.000,1034.000,5.000,0
"03/11/08","18:01:48",26020.000,"cc",28374.928,6.00,6,0.100,16478.000,0.200,3595.000,0.300,2265.000,0.500,2654.000,1.000,1028.000,5.000,0
"03/11/08","18:01:54",25972.000,"cc",28315.348,6.00,6,0.100,16475.000,0.200,3634.000,0.300,2165.000,0.500,2686.000,1.000,1012.000,5.000,0
"03/11/08","18:02:00",26191.000,"cc",28296.199,6.00,6,0.100,16522.000,0.200,3745.000,0.300,2293.000,0.500,2616.000,1.000,1015.000,5.000,0
"03/11/08","18:02:06",26277.000,"cc",28333.658,6.00,6,0.100,16575.000,0.200,3592.000,0.300,2429.000,0.500,2621.000,1.000,1060.000,5.000,0
"03/11/08","18:02:12",26182.000,"cc",28309.160,6.00,6,0.100,16577.000,0.200,3710.000,0.300,2271.000,0.500,2607.000,1.000,1017.000,5.000,0
"03/11/08","18:02:18",26468.000,"cc",28319.051,6.00,6,0.100,16758.000,0.200,3796.000,0.300,2292.000,0.500,2589.000,1.000,1033.000,5.000,0
"03/11/08","18:02:24",26450.000,"cc",28263.150,6.00,6,0.100,16745.000,0.200,3645.000,0.300,2286.000,0.500,2709.000,1.000,1065.000,5.000,0
"03/11/08","18:02:30",25841.000,"cc",28369.285,6.00,6,0.100,16409.000,0.200,3600.000,0.300,2232.000,0.500,2647.000,1.000,953.000,5.000,0
"03/11/08","18:02:36",26214.000,"cc",28236.834,6.00,6,0.100,16637.000,0.200,3656.000,0.300,2304.000,0.500,2596.000,1.000,1021.000,5.000,0
"03/11/08","18:02:42",26572.000,"cc",28262.967,6.00,6,0.100,16912.000,0.200,3544.000,0.300,2441.000,0.500,2631.000,1.000,1044.000,5.000,0
"03/11/08","18:02:48",25825.000,"cc",28319.315,6.00,6,0.100,16399.000,0.200,3627.000,0.300,2202.000,0.500,2636.000,1.000,961.000,5.000,0
"03/11/08","18:02:54",26047.000,"cc",28332.568,6.00,6,0.100,16575.000,0.200,3529.000,0.300,2210.000,0.500,2711.000,1.000,1022.000,5.000,0
"03/11/08","18:03:00",26042.000,"cc",28341.422,6.00,6,0.100,16463.000,0.200,3554.000,0.300,2315.000,0.500,2708.000,1.000,1002.000,5.000,0
"03/11/08","18:03:06",26336.000,"cc",28312.123,6.00,6,0.100,16776.000,0.200,3611.000,0.300,2307.000,0.500,2644.000,1.000,998.000,5.000,0
"03/11/08","18:03:12",25943.000,"cc",28254.811,6.00,6,0.100,16497.000,0.200,3562.000,0.300,2279.000,0.500,2617.000,1.000,988.000,5.000,0
"03/11/08","18:03:18",25988.000,"cc",28326.166,6.00,6,0.100,16644.000,0.200,3494.000,0.300,2244.000,0.500,2593.000,1.000,1013.000,5.000,0
"03/11/08","18:03:24",26024.000,"cc",28394.307,6.00,6,0.100,16489.000,0.200,3587.000,0.300,2207.000,0.500,2744.000,1.000,997.000,5.000,0
"03/11/08","18:03:30",26038.000,"cc",28299.877,6.00,6,0.100,16773.000,0.200,3489.000,0.300,2220.000,0.500,2577.000,1.000,979.000,5.000,0
"03/11/08","18:03:36",25968.000,"cc",28311.451,6.00,6,0.100,16590.000,0.200,3575.000,0.300,2210.000,0.500,2573.000,1.000,1020.000,5.000,0
"03/11/08","18:03:42",25998.000,"cc",28326.957,6.00,6,0.100,16506.000,0.200,3632.000,0.300,2247.000,0.500,2601.000,1.000,1012.000,5.000,0
"03/11/08","18:03:48",26116.000,"cc",28376.756,6.00,6,0.100,16550.000,0.200,3532.000,0.300,2352.000,0.500,2625.000,1.000,1057.000,5.000,0
"03/11/08","18:03:54",25816.000,"cc",28278.348,6.00,6,0.100,16348.000,0.200,3635.000,0.300,2224.000,0.500,2566.000,1.000,1043.000,5.000,0
"03/11/08","18:04:00",25785.000,"cc",28261.504,6.00,6,0.100,16491.000,0.200,3500.000,0.300,2211.000,0.500,2595.000,1.000,988.000,5.000,0
"03/11/08","18:04:06",26205.000,"cc",28285.986,6.00,6,0.100,16571.000,0.200,3764.000,0.300,2294.000,0.500,2582.000,1.000,994.000,5.000,0
"03/11/08","18:04:12",26311.000,"cc",28338.600,6.00,6,0.100,16640.000,0.200,3655.000,0.300,2259.000,0.500,2743.000,1.000,1014.000,5.000,0
"03/11/08","18:04:18",26074.000,"cc",28352.432,6.00,6,0.100,16607.000,0.200,3504.000,0.300,2233.000,0.500,2752.000,1.000,977.000,5.000,1.000
"03/11/08","18:04:24",25823.000,"cc",28303.941,6.00,6,0.100,16389.000,0.200,3501.000,0.300,2304.000,0.500,2614.000,1.000,1015.000,5.000,0
"03/11/08","18:04:30",25864.000,"cc",28276.315,6.00,6,0.100,16427.000,0.200,3494.000,0.300,2261.000,0.500,2668.000,1.000,1014.000,5.000,0
"03/11/08","18:04:36",26084.000,"cc",28314.750,6.00,6,0.100,16727.000,0.200,3546.000,0.300,2223.000,0.500,2650.000,1.000,938.000,5.000,0
"03/11/08","18:04:42",26011.000,"cc",28278.981,6.00,6,0.100,16489.000,0.200,3611.000,0.300,2269.000,0.500,2665.000,1.000,977.000,5.000,0
"03/11/08","18:04:48",25877.000,"cc",28300.707,6.00,6,0.100,16255.000,0.200,3631.000,0.300,2274.000,0.500,2714.000,1.000,1003.000,5.000,0
"03/11/08","18:04:54",25571.000,"cc",28340.625,6.00,6,0.100,16245.000,0.200,3496.000,0.300,2215.000,0.500,2641.000,1.000,974.000,5.000,0
"03/11/08","18:05:00",25626.000,"cc",28324.053,6.00,6,0.100,16400.000,0.200,3462.000,0.300,2204.000,0.500,2561.000,1.000,999.000,5.000,0
"03/11/08","18:05:06",25635.000,"cc",28295.127,6.00,6,0.100,16488.000,0.200,3449.000,0.300,2195.000,0.500,2517.000,1.000,986.000,5.000,0
"03/11/08","18:05:12",25909.000,"cc",28389.910,6.00,6,0.100,16600.000,0.200,3531.000,0.300,2169.000,0.500,2621.000,1.000,988.000,5.000,0
"03/11/08","18:05:18",25517.000,"cc",28268.516,6.00,6,0.100,16197.000,0.200,3524.000,0.300,2254.000,0.500,2513.000,1.000,1029.000,5.000,0
"03/11/08","18:05:24",25696.000,"cc",28246.520,6.00,6,0.100,16367.000,0.200,3514.000,0.300,2197.000,0.500,2610.000,1.000,1008.000,5.000,0
"03/11/08","18:05:30",25976.000,"cc",28289.184,6.00,6,0.100,16574.000,0.200,3516.000,0.300,2249.000,0.500,2617.000,1.000,1020.000,5.000,0
"03/11/08","18:05:36",25740.000,"cc",28364.754,6.00,6,0.100,16407.000,0.200,3481.000,0.300,2193.000,0.500,2623.000,1.000,1036.000,5.000,0
"03/11/08","18:05:42",26238.000,"cc",28316.094,6.00,6,0.100,16905.000,0.200,3485.000,0.300,2186.000,0.500,2627.000,1.000,1035.000,5.000,0
"03/11/08","18:05:48",25784.000,"cc",28348.031,6.00,6,0.100,16462.000,0.200,3443.000,0.300,2207.000,0.500,2640.000,1.000,1032.000,5.000,0
"03/11/08","18:05:54",26166.000,"cc",28375.615,6.00,6,0.100,16473.000,0.200,3537.000,0.300,2335.000,0.500,2708.000,1.000,1112.000,5.000,1.000
"03/11/08","18:06:00",25638.000,"cc",28249.316,6.00,6,0.100,16277.000,0.200,3491.000,0.300,2267.000,0.500,2615.000,1.000,988.000,5.000,0
"03/11/08","18:06:06",25705.000,"cc",28280.566,6.00,6,0.100,16315.000,0.200,3591.000,0.300,2141.000,0.500,2628.000,1.000,1030.000,5.000,0
"03/11/08","18:06:12",25879.000,"cc",28328.145,6.00,6,0.100,16405.000,0.200,3455.000,0.300,2288.000,0.500,2745.000,1.000,986.000,5.000,0
"03/11/08","18:06:18",25865.000,"cc",28322.440,6.00,6,0.100,16307.000,0.200,3532.000,0.300,2317.000,0.500,2713.000,1.000,996.000,5.000,0
"03/11/08","18:06:24",26085.000,"cc",28339.281,6.00,6,0.100,16779.000,0.200,3415.000,0.300,2346.000,0.500,2572.000,1.000,973.000,5.000,0
"03/11/08","18:06:30",25671.000,"cc",28325.846,6.00,6,0.100,16329.000,0.200,3396.000,0.300,2202.000,0.500,2726.000,1.000,1018.000,5.000,0
"03/11/08","18:06:36",25622.000,"cc",28365.156,6.00,6,0.100,16327.000,0.200,3421.000,0.300,2258.000,0.500,2628.000,1.000,988.000,5.000,0
"03/11/08","18:06:42",25407.000,"cc",28315.975,6.00,6,0.100,16162.000,0.200,3333.000,0.300,2273.000,0.500,2636.000,1.000,1003.000,5.000,0
"03/11/08","18:06:48",25811.000,"cc",28295.645,6.00,6,0.100,16289.000,0.200,3384.000,0.300,2308.000,0.500,2739.000,1.000,1091.000,5.000,0
"03/11/08","18:06:54",25772.000,"cc",28348.734,6.00,6,0.100,16357.000,0.200,3474.000,0.300,2187.000,0.500,2700.000,1.000,1054.000,5.000,0
"03/11/08","18:07:00",25718.000,"cc",28283.201,6.00,6,0.100,16287.000,0.200,3420.000,0.300,2259.000,0.500,2710.000,1.000,1042.000,5.000,0
"03/11/08","18:07:06",25519.000,"cc",28331.104,6.00,6,0.100,16187.000,0.200,3414.000,0.300,2285.000,0.500,2659.000,1.000,974.000,5.000,0
"03/11/08","18:07:12",25877.000,"cc",28277.379,6.00,6,0.100,16551.000,0.200,3403.000,0.300,2273.000,0.500,2665.000,1.000,985.000,5.000,0
"03/11/08","18:07:18",25671.000,"cc",28362.686,6.00,6,0.100,16335.000,0.200,3455.000,0.300,2197.000,0.500,2683.000,1.000,1001.000,5.000,0
"03/11/08","18:07:24",25289.000,"cc",28312.607,6.00,6,0.100,16059.000,0.200,3426.000,0.300,2164.000,0.500,2629.000,1.000,1011.000,5.000,0
"03/11/08","18:07:30",25386.000,"cc",28310.693,6.00,6,0.100,16059.000,0.200,3353.000,0.300,2244.000,0.500,2670.000,1.000,1060.000,5.000,0
"03/11/08","18:07:36",25391.000,"cc",28279.920,6.00,6,0.100,16326.000,0.200,3290.000,0.300,2104.000,0.500,2681.000,1.000,990.000,5.000,0
"03/11/08","18:07:42",25229.000,"cc",28344.012,6.00,6,0.100,16075.000,0.200,3328.000,0.300,2251.000,0.500,2571.000,1.000,1004.000,5.000,0
"03/11/08","18:07:48",25756.000,"cc",28346.602,6.00,6,0.100,16245.000,0.200,3408.000,0.300,2304.000,0.500,2715.000,1.000,1084.000,5.000,0
"03/11/08","18:07:54",25377.000,"cc",28319.363,6.00,6,0.100,16165.000,0.200,3300.000,0.300,2219.000,0.500,2637.000,1.000,1056.000,5.000,0
"03/11/08","18:08:00",25439.000,"cc",28308.559,6.00,6,0.100,16270.000,0.200,3440.000,0.300,2121.000,0.500,2630.000,1.000,978.000,5.000,0
"03/11/08","18:08:06",25640.000,"cc",28318.945,6.00,6,0.100,16343.000,0.200,3392.000,0.300,2264.000,0.500,2667.000,1.000,974.000,5.000,0
"03/11/08","18:08:12",25472.000,"cc",28277.660,6.00,6,0.100,16143.000,0.200,3384.000,0.300,2289.000,0.500,2640.000,1.000,1016.000,5.000,0
"03/11/08","18:08:18",25872.000,"cc",28357.914,6.00,6,0.100,16447.000,0.200,3423.000,0.300,2278.000,0.500,2667.000,1.000,1057.000,5.000,0
"03/11/08","18:08:24",25586.000,"cc",28297.334,6.00,6,0.100,16321.000,0.200,3419.000,0.300,2210.000,0.500,2609.000,1.000,1027.000,5.000,0
"03/11/08","18:08:30",25409.000,"cc",28301.129,6.00,6,0.100,16110.000,0.200,3265.000,0.300,2226.000,0.500,2727.000,1.000,1081.000,5.000,0
"03/11/08","18:08:36",25122.000,"cc",28352.582,6.00,6,0.100,16014.000,0.200,3170.000,0.300,2211.000,0.500,2696.000,1.000,1031.000,5.000,0
"03/11/08","18:08:42",25260.000,"cc",28268.979,6.00,6,0.100,16174.000,0.200,3357.000,0.300,2135.000,0.500,2581.000,1.000,1013.000,5.000,0
"03/11/08","18:08:48",25200.000,"cc",28335.670,6.00,6,0.100,15998.000,0.200,3218.000,0.300,2267.000,0.500,2716.000,1.000,1001.000,5.000,0
"03/11/08","18:08:54",25454.000,"cc",28345.639,6.00,6,0.100,16255.000,0.200,3279.000,0.300,2159.000,0.500,2697.000,1.000,1064.000,5.000,0
"03/11/08","18:09:00",25447.000,"cc",28211.629,6.00,6,0.100,16202.000,0.200,3303.000,0.300,2234.000,0.500,2641.000,1.000,1067.000,5.000,0
"03/11/08","18:09:06",25543.000,"cc",28330.586,6.00,6,0.100,16296.000,0.200,3257.000,0.300,2315.000,0.500,2713.000,1.000,962.000,5.000,0
"03/11/08","18:09:12",25133.000,"cc",28384.303,6.00,6,0.100,15961.000,0.200,3206.000,0.300,2258.000,0.500,2683.000,1.000,1025.000,5.000,0
"03/11/08","18:09:18",25080.000,"cc",28277.275,6.00,6,0.100,16019.000,0.200,3250.000,0.300,2233.000,0.500,2573.000,1.000,1005.000,5.000,0
"03/11/08","18:09:24",25254.000,"cc",28318.193,6.00,6,0.100,15998.000,0.200,3291.000,0.300,2246.000,0.500,2690.000,1.000,1029.000,5.000,0
"03/11/08","18:09:30",25347.000,"cc",28304.803,6.00,6,0.100,16111.000,0.200,3193.000,0.300,2330.000,0.500,2695.000,1.000,1018.000,5.000,0
"03/11/08","18:09:36",24952.000,"cc",28365.869,6.00,6,0.100,15951.000,0.200,3241.000,0.300,2192.000,0.500,2551.000,1.000,1017.000,5.000,0
"03/11/08","18:09:42",25318.000,"cc",28308.326,6.00,6,0.100,16148.000,0.200,3198.000,0.300,2226.000,0.500,2711.000,1.000,1035.000,5.000,0
"03/11/08","18:09:48",25278.000,"cc",28297.719,6.00,6,0.100,16052.000,0.200,3283.000,0.300,2224.000,0.500,2709.000,1.000,1010.000,5.000,0
"03/11/08","18:09:54",25444.000,"cc",28313.756,6.00,6,0.100,16248.000,0.200,3258.000,0.300,2206.000,0.500,2673.000,1.000,1059.000,5.000,0
"03/11/08","18:10:00",25216.000,"cc",28378.260,6.00,6,0.100,16067.000,0.200,3247.000,0.300,2211.000,0.500,2725.000,1.000,966.000,5.000,0
"03/11/08","18:10:06",24579.000,"cc",28383.438,6.00,6,0.100,15629.000,0.200,3130.000,0.300,2114.000,0.500,2676.000,1.000,1030.000,5.000,0
"03/11/08","18:10:12",24925.000,"cc",28233.852,6.00,6,0.100,15837.000,0.200,3220.000,0.300,2188.000,0.500,2659.000,1.000,1021.000,5.000,0
"03/11/08","18:10:18",24804.000,"cc",28337.315,6.00,6,0.100,15841.000,0.200,3205.000,0.300,2119.000,0.500,2614.000,1.000,1025.000,5.000,0
"03/11/08","18:10:24",24965.000,"cc",28208.539,6.00,6,0.100,15947.000,0.200,3123.000,0.300,2204.000,0.500,2672.000,1.000,1019.000,5.000,0
"03/11/08","18:10:30",25324.000,"cc",28394.268,6.00,6,0.100,16097.000,0.200,3242.000,0.300,2188.000,0.500,2704.000,1.000,1093.000,5.000,0
"03/11/08","18:10:36",25001.000,"cc",28315.973,6.00,6,0.100,15854.000,0.200,3270.000,0.300,2180.000,0.500,2695.000,1.000,1002.000,5.000,0
"03/11/08","18:10:42",25246.000,"cc",28267.598,6.00,6,0.100,15975.000,0.200,3330.000,0.300,2239.000,0.500,2673.000,1.000,1029.000,5.000,0
"03/11/08","18:10:48",25075.000,"cc",28374.889,6.00,6,0.100,15917.000,0.200,3303.000,0.300,2194.000,0.500,2678.000,1.000,983.000,5.000,0
"03/11/08","18:10:54",25101.000,"cc",28320.912,6.00,6,0.100,15977.000,0.200,3151.000,0.300,2246.000,0.500,2673.000,1.000,1054.000,5.000,0
"03/11/08","18:11:00",25088.000,"cc",28329.326,6.00,6,0.100,15959.000,0.200,3160.000,0.300,2243.000,0.500,2646.000,1.000,1080.000,5.000,0
"03/11/08","18:11:06",24872.000,"cc",28233.051,6.00,6,0.100,15830.000,0.200,3163.000,0.300,2230.000,0.500,2600.000,1.000,1049.000,5.000,0
"03/11/08","18:11:12",24952.000,"cc",28287.920,6.00,6,0.100,15947.000,0.200,3171.000,0.300,2148.000,0.500,2675.000,1.000,1011.000,5.000,0
"03/11/08","18:11:18",24636.000,"cc",28315.307,6.00,6,0.100,15554.000,0.200,3144.000,0.300,2263.000,0.500,2646.000,1.000,1029.000,5.000,0
"03/11/08","18:11:24",24670.000,"cc",28307.836,6.00,6,0.100,15622.000,0.200,3131.000,0.300,2193.000,0.500,2684.000,1.000,1040.000,5.000,0
"03/11/08","18:11:30",24702.000,"cc",28325.928,6.00,6,0.100,15698.000,0.200,3175.000,0.300,2230.000,0.500,2676.000,1.000,923.000,5.000,0
"03/11/08","18:11:36",24986.000,"cc",28280.897,6.00,6,0.100,15953.000,0.200,3136.000,0.300,2187.000,0.500,2710.000,1.000,1000.000,5.000,0
"03/11/08","18:11:42",24810.000,"cc",28442.184,6.00,6,0.100,15886.000,0.200,3080.000,0.300,2206.000,0.500,2625.000,1.000,1013.000,5.000,0
"03/11/08","18:11:48",24891.000,"cc",28353.982,6.00,6,0.100,15857.000,0.200,3167.000,0.300,2186.000,0.500,2664.000,1.000,1017.000,5.000,0
"03/11/08","18:11:54",24927.000,"cc",28291.313,6.00,6,0.100,15954.000,0.200,3081.000,0.300,2275.000,0.500,2674.000,1.000,943.000,5.000,0
"03/11/08","18:12:00",24792.000,"cc",28316.055,6.00,6,0.100,15744.000,0.200,3140.000,0.300,2228.000,0.500,2639.000,1.000,1041.000,5.000,0
"03/11/08","18:12:06",25207.000,"cc",28217.721,6.00,6,0.100,15954.000,0.200,3265.000,0.300,2301.000,0.500,2698.000,1.000,989.000,5.000,0
"03/11/08","18:12:12",25333.000,"cc",28326.045,6.00,6,0.100,16100.000,0.200,3087.000,0.300,2376.000,0.500,2689.000,1.000,1081.000,5.000,0
"03/11/08","18:12:18",25231.000,"cc",28376.832,6.00,6,0.100,16130.000,0.200,3060.000,0.300,2318.000,0.500,2722.000,1.000,1001.000,5.000,0
"03/11/08","18:12:24",24989.000,"cc",28390.289,6.00,6,0.100,15944.000,0.200,3134.000,0.300,2188.000,0.500,2732.000,1.000,991.000,5.000,0
"03/11/08","18:12:30",24904.000,"cc",28267.584,6.00,6,0.100,15828.000,0.200,3162.000,0.300,2252.000,0.500,2650.000,1.000,1012.000,5.000,0
"03/11/08","18:12:36",24837.000,"cc",28330.709,6.00,6,0.100,15783.000,0.200,3183.000,0.300,2163.000,0.500,2681.000,1.000,1027.000,5.000,0
"03/11/08","18:12:42",24755.000,"cc",28271.025,6.00,6,0.100,15807.000,0.200,3090.000,0.300,2187.000,0.500,2656.000,1.000,1015.000,5.000,0
"03/11/08","18:12:48",24749.000,"cc",28348.789,6.00,6,0.100,15662.000,0.200,3151.000,0.300,2284.000,0.500,2606.000,1.000,1046.000,5.000,0
"03/11/08","18:12:54",25051.000,"cc",28316.356,6.00,6,0.100,15893.000,0.200,3204.000,0.300,2163.000,0.500,2788.000,1.000,1003.000,5.000,0
"03/11/08","18:13:00",24889.000,"cc",28272.328,6.00,6,0.100,15999.000,0.200,3075.000,0.300,2113.000,0.500,2693.000,1.000,1009.000,5.000,0
"03/11/08","18:13:06",24801.000,"cc",28315.688,6.00,6,0.100,15719.000,0.200,3191.000,0.300,2195.000,0.500,2629.000,1.000,1067.000,5.000,0
"03/11/08","18:13:12",25039.000,"cc",28288.002,6.00,6,0.100,16021.000,0.200,3147.000,0.300,2226.000,0.500,2645.000,1.000,1000.000,5.000,0
"03/11/08","18:13:18",24477.000,"cc",28334.940,6.00,6,0.100,15641.000,0.200,3063.000,0.300,2174.000,0.500,2590.000,1.000,1009.000,5.000,0
"03/11/08","18:13:24",24553.000,"cc",28350.008,6.00,6,0.100,15747.000,0.200,2874.000,0.300,2283.000,0.500,2689.000,1.000,960.000,5.000,0
"03/11/08","18:13:30",24520.000,"cc",28303.807,6.00,6,0.100,15759.000,0.200,3029.000,0.300,2129.000,0.500,2651.000,1.000,952.000,5.000,0
"03/11/08","18:13:36",24660.000,"cc",28338.043,6.00,6,0.100,15705.000,0.200,3037.000,0.300,2172.000,0.500,2718.000,1.000,1028.000,5.000,0
"03/11/08","18:13:42",24709.000,"cc",28297.857,6.00,6,0.100,15774.000,0.200,2947.000,0.300,2284.000,0.500,2667.000,1.000,1037.000,5.000,0
"03/11/08","18:13:48",24621.000,"cc",28340.449,6.00,6,0.100,15842.000,0.200,2913.000,0.300,2151.000,0.500,2673.000,1.000,1042.000,5.000,0
"03/11/08","18:13:54",24492.000,"cc",28380.809,6.00,6,0.100,15862.000,0.200,2975.000,0.300,2119.000,0.500,2604.000,1.000,932.000,5.000,0
"03/11/08","18:14:00",24420.000,"cc",28333.740,6.00,6,0.100,15490.000,0.200,3023.000,0.300,2231.000,0.500,2707.000,1.000,969.000,5.000,0
"03/11/08","18:14:06",24329.000,"cc",28323.481,6.00,6,0.100,15575.000,0.200,3053.000,0.300,2114.000,0.500,2602.000,1.000,985.000,5.000,0
"03/11/08","18:14:12",24768.000,"cc",28301.127,6.00,6,0.100,15691.000,0.200,3006.000,0.300,2228.000,0.500,2842.000,1.000,1001.000,5.000,0
"03/11/08","18:14:18",24243.000,"cc",28311.523,6.00,6,0.100,15569.000,0.200,2968.000,0.300,2132.000,0.500,2622.000,1.000,952.000,5.000,0
"03/11/08","18:14:24",24847.000,"cc",28258.711,6.00,6,0.100,15769.000,0.200,3065.000,0.300,2174.000,0.500,2739.000,1.000,1100.000,5.000,0
"03/11/08","18:14:30",24387.000,"cc",28311.363,6.00,6,0.100,15658.000,0.200,2984.000,0.300,2209.000,0.500,2586.000,1.000,950.000,5.000,0
"03/11/08","18:14:36",24493.000,"cc",28306.277,6.00,6,0.100,15792.000,0.200,2951.000,0.300,2135.000,0.500,2614.000,1.000,1001.000,5.000,0
"03/11/08","18:14:42",24724.000,"cc",28379.537,6.00,6,0.100,15769.000,0.200,3030.000,0.300,2202.000,0.500,2732.000,1.000,991.000,5.000,0
"03/11/08","18:14:48",24526.000,"cc",28266.666,6.00,6,0.100,15790.000,0.200,3020.000,0.300,2152.000,0.500,2575.000,1.000,989.000,5.000,0
"03/11/08","18:14:54",24375.000,"cc",28319.947,6.00,6,0.100,15484.000,0.200,3021.000,0.300,2218.000,0.500,2647.000,1.000,1005.000,5.000,0
"03/11/08","18:15:00",24260.000,"cc",28334.043,6.00,6,0.100,15440.000,0.200,2983.000,0.300,2140.000,0.500,2660.000,1.000,1037.000,5.000,0
"03/11/08","18:15:06",24323.000,"cc",28346.133,6.00,6,0.100,15552.000,0.200,2998.000,0.300,2143.000,0.500,2637.000,1.000,993.000,5.000,0
"03/11/08","18:15:12",24560.000,"cc",28283.676,6.00,6,0.100,15768.000,0.200,3026.000,0.300,2218.000,0.500,2611.000,1.000,937.000,5.000,0
"03/11/08","18:15:18",24495.000,"cc",28325.668,6.00,6,0.100,15542.000,0.200,3133.000,0.300,2110.000,0.500,2703.000,1.000,1007.000,5.000,0
"03/11/08","18:15:24",24478.000,"cc",28293.740,6.00,6,0.100,15680.000,0.200,2959.000,0.300,2252.000,0.500,2597.000,1.000,990.000,5.000,0
"03/11/08","18:15:30",24211.000,"cc",28329.830,6.00,6,0.100,15460.000,0.200,2861.000,0.300,2255.000,0.500,2656.000,1.000,979.000,5.000,0
"03/11/08","18:15:36",24213.000,"cc",28351.660,6.00,6,0.100,15557.000,0.200,2885.000,0.300,2148.000,0.500,2644.000,1.000,979.000,5.000,0
"03/11/08","18:15:42",24543.000,"cc",28297.611,6.00,6,0.100,15664.000,0.200,2917.000,0.300,2249.000,0.500,2719.000,1.000,994.000,5.000,0
"03/11/08","18:15:48",24323.000,"cc",28305.219,6.00,6,0.100,15425.000,0.200,3039.000,0.300,2191.000,0.500,2650.000,1.000,1018.000,5.000,0
"03/11/08","18:15:54",24632.000,"cc",28300.879,6.00,6,0.100,15793.000,0.200,3006.000,0.300,2198.000,0.500,2612.000,1.000,1023.000,5.000,0
"03/11/08","18:16:00",24496.000,"cc",28310.609,6.00,6,0.100,15512.000,0.200,2985.000,0.300,2260.000,0.500,2706.000,1.000,1033.000,5.000,0
"03/11/08","18:16:06",24367.000,"cc",28414.176,6.00,6,0.100,15718.000,0.200,2880.000,0.300,2166.000,0.500,2626.000,1.000,977.000,5.000,0
"03/11/08","18:16:12",24221.000,"cc",28284.633,6.00,6,0.100,15648.000,0.200,2879.000,0.300,2130.000,0.500,2585.000,1.000,979.000,5.000,0